Tracking 19193 objects as of 22-Jun-2018
HD Live streaming from Space Station
objects crossing your sky now

FENGYUN 1C DEB

Track FENGYUN 1C DEB now!
10-day predictions


NORAD ID: 30639
Int'l Code: 1999-025ANW
Perigee: 801.9 km
Apogee: 939.4 km
Inclination: 99.1 °
Period: 102.2 minutes
Semi major axis: 7241 km
RCS: 0.025 m2 (small)
Launch date: May 10, 1999
Source: People's Republic of China (PRC)
Launch site: Taiyaun Space Center, China (TSC)

Note: This is SATELLITE DEBRIS
aabbcc
Your satellite tracking list
Your tracking list is empty




NASA's NSSDC Master Catalog

Two Line Element Set (TLE):
1 30639U 99025ANW 18172.79744420  .00000320  00000-0  20309-3 0  9994
2 30639  99.0913 212.4109 0094891  82.8526 278.3420 14.08788189581672
Source of the keplerian elements: AFSPC